Location: ?�kov
(49.4404°N, 15.1201°E)
Time: 18:13:51
(UTC+00:00)

ARIANE 5 R/B - Pass Details

Date: 07 June 2020
Orbit: 748 x 795 km, 98.6° (Epoch: 08 July)

Event Time Altitude Azimuth Distance (km) Brightness Sun altitude
Rises 01:11:55 0° 21° (NNE) 3,224 7.6 -11.9°
Reaches altitude 10° 01:14:26 10° 30° (NNE) 2,288 6.5 -11.7°
Maximum altitude 01:19:02 36° 97° (E) 1,189 3.8 -11.3°
Drops below altitude 10° 01:23:35 10° 163° (SSE) 2,262 4.6 -10.9°
Enters shadow 01:25:02 - 169° (S) 2,797 5.0 -10.8°
